GFSNW_850_dewp_021.txt.gz
Dewpoint
-5 -4 -1 1 4 5 7 1 5 6 5 1 1 2 -1 0 1 1 2 2 2 3 3 4 4 4 2 1 1 3 2 3 4 1 1 1 2 2 2 4 4 5 6 4
-5 -6 -2 -1 4 5 5 3 5 5 3 4 2 2 2 2 1 2 1 2 2 2 3 4 3 3 2 2 2 3 2 3 2 -4 1 -0 3 3 2 2 3 5 6 3
-6 -5 -4 -1 2 4 2 2 5 3 1 0 2 2 2 3 2 1 2 2 2 2 3 4 4 4 3 3 2 1 1 3 0 0 -2 -0 3 3 3 4 6 4 4 2
-6 -5 -6 -1 -1 4 2 -1 4 3 3 3 2 2 1 3 2 1 2 2 2 2 3 4 5 4 3 2 3 2 2 5 3 3 2 3 3 4 3 4 4 5 3 3
-6 -5 -6 -3 -1 2 1 1 4 3 3 2 2 1 2 3 2 1 3 3 2 2 3 1 4 4 3 3 3 3 2 4 4 5 3 3 4 3 3 4 4 4 4 4
-6 -5 -5 -4 -1 1 2 1 2 2 2 0 2 2 2 2 2 2 2 2 2 1 2 2 2 2 2 2 3 3 3 4 4 4 2 2 3 -0 2 2 2 3 3 -0
-6 -5 -4 -3 -1 0 -0 1 1 0 3 0 2 2 1 2 1 3 2 1 1 2 3 3 3 2 -0 1 2 2 3 3 3 5 3 5 -0 -1 -0 1 0 -0 -0 -0
-5 -5 -4 -1 1 1 1 1 -1 -3 2 2 3 2 2 3 3 3 2 3 2 4 3 3 2 2 -1 0 2 3 2 3 4 5 5 3 2 -1 -0 2 1 -1 0 2
-4 -4 -3 -0 2 3 2 1 -0 -2 -0 3 3 3 2 2 2 3 5 4 4 3 0 2 3 2 0 2 1 1 1 0 4 5 6 6 2 -2 2 1 3 0 2 1
-2 -2 -1 1 2 2 2 1 0 -1 -2 2 3 2 3 2 2 2 4 5 4 3 2 4 4 5 1 3 1 -0 3 3 5 4 4 4 1 -1 -1 4 3 1 1 1
1 1 1 2 2 2 2 2 1 0 -0 2 3 2 2 3 2 4 4 4 4 3 4 4 3 3 2 2 1 1 2 2 3 3 4 4 -2 -0 2 1 0 2 2 2
2 3 3 3 3 3 2 2 2 2 1 2 4 4 4 4 3 3 4 2 3 4 3 2 1 3 0 1 5 -0 3 2 3 2 3 -1 -1 -1 -1 0 3 3 3 2
4 3 4 4 4 4 3 3 3 2 3 3 4 4 4 5 5 4 4 4 3 3 3 1 2 4 1 4 3 3 1 0 3 2 1 1 1 1 2 3 3 3 2 0
5 5 5 5 5 5 4 4 4 4 3 4 3 3 2 3 4 4 4 5 5 4 4 3 2 4 2 3 3 3 2 3 4 3 3 2 2 3 4 3 2 1 -2 -4
5 6 6 5 5 5 5 5 5 5 4 3 3 3 2 2 2 2 3 3 5 6 5 3 3 3 3 3 2 3 3 4 4 4 2 3 3 2 2 1 -1 -7 -8 -11
4 5 6 6 5 5 5 5 5 5 4 4 2 3 3 2 2 3 3 3 5 5 5 5 4 3 3 3 4 2 2 3 2 3 3 4 2 1 -1 -6 -10 -8 -8 -11
4 5 5 4 4 4 5 4 3 4 5 3 4 4 4 4 3 3 3 4 5 5 5 4 4 4 4 2 4 3 2 2 2 2 2 1 0 -1 -8 -7 -7 -8 -11 -12
4 4 5 5 6 6 5 5 5 3 5 3 2 3 3 3 3 3 4 4 4 4 4 4 4 3 3 3 1 -1 -1 0 -0 -0 1 -1 -5 -5 -5 -8 -10 -11 -11 -10
5 6 6 6 6 5 5 4 6 5 4 5 3 3 3 3 3 3 3 3 2 3 2 2 3 2 3 -1 -2 -2 -1 -0 -4 -3 -4 -4 -5 -11 -13 -13 -12 -11 -10 -9
5 5 5 4 3 4 5 5 5 4 4 3 2 2 2 3 3 2 2 2 1 2 1 1 1 2 -3 -2 -3 -3 -3 -3 -3 -6 -14 -17 -17 -15 -13 -10 -10 -10 -10 -10
4 2 1 2 2 2 2 2 2 1 0 0 1 1 1 2 2 2 2 1 1 2 -1 1 2 1 -3 -3 -6 -8 -9 -12 -14 -14 -14 -12 -11 -10 -10 -11 -11 -11 -9 -8
1 1 0 0 0 0 0 0 -1 0 1 -0 -0 0 1 1 2 2 -0 1 -0 0 -2 -1 -0 -3 -2 -4 -8 -10 -12 -12 -12 -13 -12 -12 -11 -11 -11 -11 -10 -9 -8 -9
0 0 -0 -0 -1 1 1 1 -1 -0 -1 -1 -0 -0 0 0 1 -1 -0 -0 -1 -3 -2 -1 -3 -3 -2 -7 -10 -11 -10 -11 -13 -13 -12 -10 -10 -11 -10 -9 -9 -8 -8 -8
0 0 -0 -1 -1 -2 -3 -3 -3 -2 -1 -0 -0 -1 -1 -1 -1 -3 -1 -3 -3 -1 -2 -2 -3 -3 -5 -8 -9 -9 -12 -14 -14 -12 -9 -9 -9 -9 -9 -9 -9 -9 -8 -7
-6 -5 -2 -3 -4 -2 -2 -1 -1 -1 -0 -0 -1 -2 -3 -3 -3 -3 -3 -2 -2 -3 -3 -5 -3 -6 -8 -9 -8 -10 -13 -13 -11 -9 -8 -8 -8 -8 -9 -10 -10 -9 -7 -7
-10 -6 -5 -3 -3 -3 -2 -1 -1 -1 -1 -1 -3 -6 -4 -4 -4 -3 -3 -3 -4 -5 -6 -5 -8 -8 -9 -11 -13 -13 -12 -10 -8 -7 -8 -8 -8 -8 -9 -11 -10 -9 -8 -8
-9 -6 -4 -4 -4 -3 -3 -3 -2 -1 -3 -5 -7 -7 -7 -7 -6 -4 -5 -5 -6 -7 -11 -12 -10 -11 -13 -14 -13 -13 -10 -8 -7 -8 -8 -8 -8 -8 -8 -10 -11 -8 -7 -7

GFSNW_850_dewp_024.txt.gz
Dewpoint
-5 -1 1 2 4 4 5 0 3 3 5 3 2 2 -0 0 1 2 2 2 2 2 3 3 4 4 2 2 1 1 2 2 0 -2 0 1 1 2 1 4 4 4 4 1
-5 -3 -0 3 3 6 5 5 6 6 4 8 6 2 2 2 1 1 1 3 2 2 3 5 3 3 3 2 2 2 2 2 -1 -1 1 1 2 2 1 1 3 4 7 1
-5 -5 -1 1 5 5 2 4 9 4 2 3 2 3 3 3 2 2 2 2 2 3 4 3 4 4 3 3 3 1 2 2 -1 -2 -4 -2 -2 -2 -0 1 6 3 2 0
-6 -5 -4 -1 3 3 0 1 6 5 8 4 2 2 2 3 3 2 2 2 2 3 5 4 4 4 3 2 2 3 3 3 2 0 -1 -1 0 1 -0 1 2 4 2 -1
-6 -5 -6 -2 -1 2 0 5 6 4 4 3 2 3 3 2 2 1 2 2 2 1 2 -1 3 2 2 1 3 3 3 4 4 4 1 0 2 0 0 1 1 1 1 2
-6 -5 -6 -4 -1 -0 0 1 2 5 3 3 4 4 2 2 2 3 2 2 3 4 2 1 3 3 3 2 2 4 5 5 5 8 2 3 6 1 -0 0 -0 1 2 -1
-6 -5 -5 -5 -2 -0 -2 0 1 2 7 4 4 2 2 2 2 3 2 2 2 3 3 3 3 1 2 3 3 4 5 6 5 7 6 8 1 -2 -1 -0 -1 -2 -2 -2
-5 -5 -5 -4 -2 -0 -1 1 -1 -1 6 4 4 3 3 3 3 3 3 4 4 4 4 6 7 4 5 4 2 3 3 6 6 7 5 1 0 -2 -1 0 1 -1 -0 0
-5 -5 -4 -2 0 1 0 -0 -2 -4 2 6 3 3 3 5 5 5 5 4 4 3 5 7 8 5 1 0 2 2 2 3 7 5 7 5 -1 -2 0 0 2 1 1 2
-4 -4 -3 -1 1 2 2 0 -1 -3 -2 2 3 4 4 4 4 6 5 5 5 4 5 6 7 7 1 2 6 5 4 5 6 5 6 4 -1 -1 -1 5 4 1 1 3
-2 -2 -1 -0 1 2 2 1 -0 -2 -1 3 3 2 4 3 4 7 5 6 6 5 7 7 6 6 5 3 1 3 4 7 6 5 6 6 -1 -0 4 2 2 2 3 3
-1 -0 1 1 1 2 2 1 1 -0 -1 2 3 2 1 2 2 4 5 5 5 6 7 5 4 6 4 7 6 0 3 2 2 2 3 -1 -1 0 1 3 3 4 3 1
1 1 2 3 2 2 2 2 1 1 1 4 4 4 4 4 3 3 5 4 4 5 4 5 4 5 4 6 5 3 1 0 3 3 0 -0 1 2 4 3 3 2 1 1
3 3 4 4 4 3 3 3 2 2 2 3 5 3 4 4 4 4 4 4 3 4 3 4 4 7 3 6 4 4 2 1 2 2 2 2 2 4 3 2 1 -1 -4 -5
5 5 5 5 5 5 5 4 4 4 3 5 4 3 3 3 3 4 5 5 5 5 5 4 6 5 4 4 3 4 2 2 4 5 3 4 3 2 1 1 -4 -6 -7 -6
5 5 6 5 5 5 5 5 5 4 4 3 6 3 3 2 2 3 4 6 6 5 5 5 4 3 3 4 5 2 2 3 3 3 4 3 2 1 -3 -5 -6 -7 -7 -8
4 4 5 5 5 4 4 4 3 5 5 3 4 4 4 3 4 4 4 4 5 6 5 4 4 4 4 3 4 3 1 0 1 3 2 1 -0 -1 -4 -5 -6 -7 -10 -10
4 4 4 5 5 4 5 4 3 4 4 3 3 4 3 3 3 3 3 4 4 4 4 3 4 4 4 4 2 -0 -1 -1 -0 1 1 0 -3 -4 -5 -8 -10 -10 -11 -10
4 4 5 6 6 6 6 4 4 4 3 4 4 5 5 2 2 2 3 3 3 3 2 2 3 2 4 2 -1 -1 -1 -1 -2 -3 -4 -7 -8 -11 -11 -11 -11 -10 -9 -9
5 5 5 5 5 5 5 5 5 5 5 4 3 3 4 3 2 2 3 2 3 4 2 1 1 2 -2 -1 -1 -2 -2 -3 -2 -4 -10 -11 -10 -11 -10 -9 -8 -8 -9 -8
5 4 3 2 3 4 4 3 3 2 1 1 1 2 2 2 3 2 2 2 1 3 1 3 2 2 -1 -2 -4 -5 -8 -7 -9 -9 -10 -10 -10 -9 -8 -8 -8 -7 -8 -8
3 3 1 1 2 1 1 1 -1 1 3 -0 0 1 1 1 2 1 0 2 1 2 -1 1 1 -1 -2 -3 -5 -8 -10 -9 -10 -10 -10 -10 -8 -7 -7 -8 -9 -10 -9 -10
1 1 -0 -0 -1 2 2 2 2 2 -0 -0 -0 -0 0 0 1 -0 1 2 2 -2 -0 0 -1 -2 -3 -4 -6 -7 -8 -11 -14 -12 -10 -8 -8 -9 -9 -10 -10 -9 -10 -10
-0 -0 0 1 1 1 1 1 1 -1 -0 -0 0 -1 0 -1 -0 -1 2 -1 -2 0 -0 0 -2 -2 -2 -4 -6 -8 -9 -11 -14 -14 -12 -10 -9 -9 -9 -9 -9 -10 -10 -10
-1 -1 0 -0 -3 -2 -1 -1 -1 -1 -0 -0 -1 -1 -1 -1 -1 -1 -1 -1 -0 -1 -1 -2 -3 -2 -4 -6 -9 -7 -9 -13 -14 -12 -10 -8 -8 -8 -8 -9 -9 -8 -9 -10
-7 -4 -2 -3 -1 -2 -1 -1 -1 -0 -0 -0 -2 -1 -0 -1 -1 -1 -1 -1 -2 -2 -3 -2 -3 -5 -9 -10 -13 -15 -14 -13 -12 -9 -8 -8 -8 -8 -9 -9 -9 -10 -10 -10
-7 -3 -3 -3 -2 -1 -2 -1 -1 -1 -2 -1 -3 -2 -2 -4 -2 -2 -3 -2 -3 -4 -3 -6 -9 -11 -11 -12 -12 -13 -13 -12 -10 -9 -8 -7 -8 -9 -9 -9 -9 -8 -8 -9

GFSNW_850_dewp_030.txt.gz
Dewpoint
1 2 1 3 -1 -2 1 4 3 4 -5 1 -0 4 0 -2 -1 0 -0 -1 -2 -1 -0 0 1 2 3 -0 -1 -0 -2 -0 3 -3 -4 -3 -2 -0 -0 8 4 7 7 4
-1 1 2 4 -1 -2 6 2 6 -1 -3 6 4 2 0 -1 -1 -2 -0 1 0 1 1 3 2 4 2 0 2 3 1 3 6 2 1 -0 -3 -3 -3 -1 4 5 7 3
-3 0 4 3 1 4 6 5 9 2 4 5 1 2 2 2 2 1 0 0 0 1 2 1 3 4 3 2 2 -0 2 0 -0 3 -2 -4 -3 -5 -5 -3 6 5 4 1
-4 -1 3 3 3 5 5 5 5 1 6 4 1 -0 -0 2 3 1 0 1 0 1 3 2 3 3 3 2 1 1 2 4 0 -0 -3 -4 -5 -5 -5 -4 -1 2 1 -1
-5 -4 -0 4 5 6 3 6 4 4 3 0 2 2 1 1 -0 1 1 1 0 1 3 1 2 1 1 1 1 1 1 5 5 4 -2 -3 -3 -4 -2 -3 -3 -3 -1 -1
-6 -5 -3 0 3 2 5 4 3 4 5 4 4 4 1 0 1 3 0 -0 1 5 2 3 2 1 -0 -1 1 2 4 7 7 8 4 4 8 4 -2 -3 -3 -1 2 -1
-6 -5 -5 -2 -0 2 6 5 5 7 8 4 2 1 0 0 2 1 0 0 3 4 1 1 1 1 1 0 2 2 7 6 7 7 6 7 -2 -4 -3 -2 -2 -2 -2 -2
-6 -6 -6 -4 -1 -1 -0 2 7 6 8 4 2 2 1 2 2 2 4 4 3 2 1 6 4 6 5 4 -0 1 2 7 7 9 6 2 -1 -1 0 1 1 -2 1 2
-5 -6 -5 -5 -2 -1 -1 1 4 6 6 7 2 1 2 5 6 5 5 5 5 4 6 8 8 8 1 3 3 2 2 6 8 7 6 6 1 -3 -1 -2 3 3 3 3
-5 -6 -5 -4 -1 -0 -0 -2 -1 4 9 5 4 4 5 3 5 7 5 5 6 5 7 5 6 8 -1 4 6 6 5 5 6 5 6 4 -1 -2 -1 3 5 4 3 3
-4 -5 -5 -4 -0 1 -0 -1 -2 4 7 6 6 5 5 4 5 9 5 7 7 9 6 6 8 8 7 4 0 5 5 6 6 6 6 6 -1 1 5 4 3 4 3 3
-4 -5 -5 -4 -2 0 1 4 -1 -2 5 8 7 5 5 5 6 5 5 4 6 7 7 6 7 8 6 7 7 -3 4 5 6 5 5 0 1 4 4 4 4 3 2 1
-3 -4 -4 -3 -2 -0 1 4 -0 2 3 6 5 7 2 3 4 6 6 6 4 4 7 6 6 5 6 6 7 2 -1 -2 6 4 1 -0 3 4 3 3 3 2 -1 -0
-2 -2 -2 -2 -2 -0 0 5 0 5 3 5 7 6 5 1 1 4 6 6 5 7 6 5 4 5 4 8 5 5 4 1 2 2 0 0 4 4 3 3 2 -2 -3 -5
0 0 0 0 0 1 1 1 1 2 7 5 7 5 5 3 3 6 6 6 6 6 6 4 5 6 6 6 6 7 2 2 5 5 4 4 4 3 3 1 -1 -4 -5 -6
3 2 3 2 2 2 5 6 2 2 5 2 6 6 5 4 4 6 7 6 6 7 7 6 7 4 4 6 6 1 -2 -1 2 3 4 4 3 2 1 -1 -4 -5 -6 -9
4 4 4 4 4 4 6 5 7 4 3 2 4 7 5 4 5 6 6 6 6 6 5 6 6 5 4 4 6 -0 -1 2 3 3 2 2 2 1 -0 -2 -5 -8 -10 -11
5 5 5 5 5 5 6 3 2 4 5 4 3 5 5 4 5 5 5 5 5 5 5 5 4 4 5 6 3 1 1 1 3 3 2 2 1 -0 -4 -7 -10 -10 -10 -11
5 5 4 4 4 5 5 4 3 5 6 4 3 4 5 4 4 4 3 4 4 4 4 4 4 4 5 4 3 2 1 0 1 1 -1 -3 -5 -8 -9 -10 -10 -10 -10 -10
4 4 5 5 6 5 3 3 3 3 4 5 3 4 5 3 3 3 2 3 4 4 3 3 2 3 3 2 1 1 0 1 0 -1 -5 -7 -8 -8 -9 -9 -9 -8 -7 -7
5 5 5 4 5 5 5 5 4 4 3 4 4 5 4 4 3 3 3 2 3 4 4 4 3 3 2 2 0 1 0 1 -2 -5 -7 -8 -9 -9 -9 -9 -7 -7 -7 -7
4 4 4 3 4 3 3 2 2 1 4 1 1 2 3 2 3 2 1 3 2 4 2 3 3 1 0 -0 -1 -1 -2 -5 -7 -8 -9 -9 -10 -9 -8 -9 -11 -10 -9 -10
3 2 2 1 -0 1 3 3 3 3 0 0 0 0 1 1 2 0 0 2 3 1 3 2 1 -0 -1 -2 -3 -3 -5 -6 -8 -9 -9 -10 -12 -14 -16 -13 -11 -10 -10 -11
1 -0 1 1 2 1 1 1 1 0 1 0 1 -0 0 0 0 0 2 1 2 2 3 2 1 -2 -2 -3 -3 -4 -5 -6 -7 -8 -11 -11 -11 -15 -15 -12 -11 -9 -10 -11
-0 -0 1 1 -1 -1 -1 -1 -1 -0 0 0 0 -0 0 0 1 1 1 1 2 2 3 2 -1 -2 -3 -3 -4 -5 -6 -7 -10 -10 -11 -13 -13 -12 -12 -10 -9 -9 -10 -9
-1 -1 -0 -1 -0 -1 -1 -1 -1 -0 -0 -0 0 0 1 1 1 1 2 2 2 3 1 -1 -2 -2 -3 -3 -5 -6 -11 -14 -14 -16 -15 -11 -9 -7 -8 -8 -8 -9 -7 -5
-2 -1 -1 -1 -1 -1 -1 -1 -0 -0 -0 0 0 1 -0 -0 1 1 1 2 1 -1 -2 -2 -2 -3 -4 -6 -8 -9 -8 -8 -10 -9 -9 -8 -8 -10 -8 -8 -7 -6 -5 -6

GFSNW_850_dewp_033.txt.gz
Dewpoint
1 2 2 1 -3 -3 -1 4 5 5 -4 2 4 4 2 -2 -1 -0 0 1 -1 1 -0 2 3 5 3 -0 0 1 -1 1 2 -0 -3 -2 -2 0 1 4 4 5 5 3
1 2 2 3 -2 -3 3 4 5 4 -1 4 5 2 1 -1 -0 -1 -0 2 2 1 3 4 5 5 2 2 3 4 2 2 4 3 2 1 -2 -3 -4 1 3 4 3 3
-1 2 3 4 -1 -1 3 6 6 4 6 7 5 4 2 2 1 1 0 1 1 2 3 3 5 5 3 2 0 -2 2 2 2 4 0 -2 -3 -3 -5 -2 4 4 4 3
-3 1 4 4 -1 -0 7 6 6 0 5 3 5 3 3 4 3 1 1 1 2 2 3 4 6 5 4 3 0 1 3 4 4 3 -1 -2 -3 -2 -3 -3 -2 1 1 0
-4 -1 4 4 2 2 6 7 7 1 1 -4 4 4 2 4 2 2 2 2 1 3 4 4 5 4 3 4 2 2 2 5 3 2 3 1 -0 -0 0 -1 -2 -0 0 1
-4 -3 1 4 4 5 4 5 4 7 6 3 5 5 2 2 3 2 2 1 5 4 4 2 2 1 0 2 2 4 6 4 4 5 4 3 3 1 -1 -1 -1 -1 1 1
-5 -4 -2 1 3 3 6 5 6 6 5 6 5 3 2 4 2 3 4 3 4 2 0 0 -1 -1 1 2 2 5 4 4 4 2 2 -2 1 -2 -0 1 1 1 3 3
-5 -4 -4 -1 1 3 5 4 6 4 5 6 4 1 4 5 4 5 5 3 3 1 3 4 -0 3 -2 1 2 3 4 3 2 4 4 2 1 -0 1 1 3 3 4 3
-5 -4 -4 -3 -1 -1 -3 5 6 5 5 6 4 3 3 6 6 6 5 4 3 4 5 2 2 4 2 4 3 2 5 3 2 0 1 2 1 -0 -1 -1 3 4 3 3
-5 -5 -4 -1 -1 -1 -0 0 3 5 6 5 5 5 5 5 6 5 6 5 5 5 4 4 3 3 3 5 4 3 2 3 2 1 1 2 2 -1 -1 2 2 3 3 3
-4 -5 -4 -1 1 0 -0 -2 4 2 6 6 5 5 5 5 5 5 6 4 5 5 3 2 3 5 4 3 4 3 2 3 4 3 3 3 0 2 1 3 4 3 2 1
-4 -5 -5 -3 1 1 1 -2 1 0 5 6 6 6 6 5 6 6 5 2 7 6 4 4 3 5 4 4 3 2 4 3 3 2 2 -0 1 2 4 3 3 3 1 1
-3 -4 -4 -4 -2 1 1 1 -1 -1 1 4 4 4 4 4 6 5 4 6 5 5 6 5 5 4 3 3 3 2 0 2 3 3 2 3 4 4 3 3 3 2 1 -2
-2 -3 -4 -4 -3 -2 -1 0 2 2 1 5 7 6 4 2 4 6 5 4 5 6 6 4 3 3 4 3 2 2 2 2 2 2 3 4 4 3 3 3 1 -1 -5 -5
-1 -1 -2 -2 -2 -2 -1 0 1 2 3 4 6 5 5 2 2 3 4 5 5 6 5 2 3 4 4 5 3 3 3 3 2 2 3 3 4 3 3 0 -2 -4 -5 -6
0 -0 -1 -1 -1 0 -0 1 1 3 5 2 4 6 5 3 4 7 6 6 6 6 5 5 5 6 4 2 3 3 1 1 1 4 4 4 3 3 1 -1 -3 -5 -6 -9
2 2 1 1 1 2 4 3 6 3 3 1 5 5 5 5 6 6 7 7 6 6 5 5 5 5 4 2 4 2 0 2 3 3 2 2 2 1 -0 -2 -4 -8 -10 -11
4 4 3 3 3 4 5 4 3 4 3 2 2 3 4 5 6 5 5 5 4 4 5 5 4 4 4 3 3 2 2 2 3 2 2 2 -0 -1 -3 -3 -10 -10 -10 -10
5 5 5 5 4 4 4 4 3 4 5 3 3 2 2 4 4 4 4 3 3 4 4 4 4 2 4 4 3 3 2 2 2 2 1 -1 -2 -6 -9 -10 -10 -9 -9 -9
4 5 3 3 4 4 4 3 2 3 4 5 3 3 3 3 3 3 2 3 2 3 2 3 2 3 3 2 2 2 1 1 1 -1 -3 -7 -8 -8 -9 -9 -9 -9 -8 -8
5 4 5 5 5 5 4 3 3 4 3 3 4 4 3 3 2 2 3 1 1 3 2 3 3 3 2 2 1 0 0 1 1 -2 -7 -8 -9 -9 -9 -9 -9 -10 -12 -12
5 4 4 5 5 4 3 2 2 2 3 2 2 3 3 3 3 2 2 2 1 3 2 2 2 1 0 0 0 0 -0 -3 -7 -8 -9 -9 -10 -10 -12 -14 -16 -15 -12 -12
4 3 2 2 1 2 3 4 2 2 1 1 1 1 2 2 2 1 1 2 3 2 2 1 1 0 -0 -1 -2 -4 -6 -7 -9 -9 -9 -10 -14 -15 -16 -15 -15 -13 -12 -11
1 0 0 1 1 0 -0 0 0 0 1 1 1 -0 1 0 1 0 2 1 1 2 1 -0 1 1 -0 -3 -4 -4 -5 -6 -7 -7 -8 -12 -12 -14 -14 -13 -12 -11 -10 -9
-0 -0 1 -0 -1 -1 -1 -1 -0 -0 0 0 -0 -0 0 -0 0 0 0 1 2 2 2 0 1 -2 -3 -4 -4 -5 -6 -6 -8 -12 -13 -15 -16 -14 -14 -12 -12 -10 -9 -9
-1 -1 -1 -1 -1 -1 -1 -1 -1 -0 -0 -0 0 -0 1 0 0 1 2 2 2 1 -0 0 -2 -3 -3 -4 -4 -5 -8 -12 -10 -12 -14 -13 -12 -11 -10 -11 -10 -9 -8 -7
-2 -2 -1 -1 -1 -1 -1 -1 -1 -0 -1 -0 0 0 -1 -1 0 1 1 1 -0 -0 -1 -1 -2 -3 -3 -4 -6 -10 -9 -9 -8 -9 -11 -11 -10 -9 -9 -9 -10 -8 -6 -5